Location: Aragüita
(10.0436°N, 67.8028°W)
Time: 02:15:21
(UTC+00:00)

Cosmos 1862 Rocket - Pass Details

Date: 16 January 2026
Orbit: 596 x 627 km, 82.5° (Epoch: 7 February)

Event Time Altitude Azimuth Distance (km) Brightness Sun altitude
Rises 22:43:34 0° 165° (SSE) 2,902 7.1 -4.1°
Reaches altitude 10° 22:46:00 10° 154° (SSE) 1,996 6.1 -4.7°
Maximum altitude 22:49:53 30° 93° (E) 1,116 4.4 -5.6°
Drops below altitude 10° 22:53:45 10° 31° (NNE) 1,993 5.7 -6.5°
Sets 22:56:11 0° 21° (NNE) 2,896 6.6 -7.0°
